Flag for Canada Weather past 2 weeks in Sarnia, Ontario, Canada

34 °F

Passing clouds.

Feels Like: 26 °F
Forecast: N/A
Wind: 9 mph from North

Location: Sarnia Airport

Current Time: Nov 28, 2015 at 5:29:48 PM

Latest Report: Nov 28, 2015 at 5:01 PM

Visibility: 9 mi

Pressure: 30.34 "Hg

Humidity: 81%

Dew point: 28 °F

Location of SarniaLocation

Historic Weather in Sarnia — Graph


Sarnia temperature yesterday

Maximum temperature yesterday: 57 °F (at 12:00 AM)
Minimum temperature yesterday: 37 °F (at 6:00 PM)
Average temperature yesterday: 46 °F

Past Weeks' High & Low Weather Summary

High64 °F (Nov 16, 3:00 PM)100% (Nov 21, 10:00 AM)30.49 "Hg (Nov 21, 10:00 AM)
Low18 °F (Nov 23, 12:00 AM)27% (Nov 19, 7:00 PM)29.69 "Hg (Nov 18, 11:00 PM)
Average42 °F74%30.17 "Hg
* Reported Nov 13 4:00 PM — Nov 28 4:00 PM, Sarnia, Weather by CustomWeather, © 2015

Note: Actual official high and low records may vary slightly from our data, if they occured in-between our weather recording intervals... More about our weather records


Sarnia weather history for previous 24 hours

Time TempWeatherWind HumidityBarometerVisibility
4:00 PM
Sat, Nov 28
36 °FPartly sunny.10 mph75%30.34 "Hg9 mi
3:00 PM36 °FOvercast.17 mph75%30.33 "Hg9 mi
2:00 PM37 °FOvercast.16 mph70%30.34 "Hg9 mi
1:00 PM37 °FPartly sunny.17 mph70%30.35 "Hg9 mi
12:00 PM37 °FOvercast.14 mph75%30.35 "Hg9 mi
11:00 AM37 °FPartly sunny.16 mph75%30.38 "Hg9 mi
10:00 AM36 °FOvercast.15 mph81%30.38 "Hg9 mi
9:00 AM37 °FOvercast.14 mph75%30.38 "Hg9 mi
8:00 AM36 °FOvercast.12 mph87%30.38 "Hg9 mi
7:54 AM36 °FOvercast.14 mph87%30.38 "Hg9 mi
7:00 AM37 °FOvercast.17 mph81%30.38 "Hg9 mi
6:00 AM37 °FOvercast.15 mph87%30.36 "Hg9 mi
5:00 AM37 °FMostly cloudy.17 mph87%30.36 "Hg9 mi
4:00 AM37 °FMostly cloudy.14 mph87%30.36 "Hg9 mi
3:00 AM37 °FMostly cloudy.15 mph87%30.36 "Hg9 mi
1:00 AM37 °FLight rain. Overcast.14 mph87%30.39 "Hg9 mi
12:00 AM37 °FOvercast.14 mph87%30.37 "Hg9 mi
11:00 PM
Fri, Nov 27
37 °FOvercast.16 mph87%30.36 "Hg9 mi
10:50 PM37 °FMostly cloudy.17 mph93%30.36 "Hg9 mi
10:00 PM37 °FLight rain. Mostly cloudy.17 mph93%30.37 "Hg9 mi
9:01 PM37 °FLight rain. Mostly cloudy.20 mph93%30.37 "Hg9 mi
8:00 PM37 °FLight rain. Mostly cloudy.23 mph93%30.37 "Hg9 mi
7:00 PM37 °FLight rain. Mostly cloudy.20 mph93%30.36 "Hg9 mi
6:00 PM37 °FLight rain. Fog.23 mph93%30.35 "Hg6 mi
5:00 PM39 °FLight rain. Fog.21 mph93%30.33 "Hg4 mi
Weather by CustomWeather, © 2015

See weather overviewHow to use our weather pages